Agassiz, British Columbia

3:56 AM PST on February 25, 2017 (GMT -0800)
Agassiz

Weather History for CWZA - April, 2013

Change the Weather History Date:

Monday, April 22, 2013

  Actual Average Record
Temperature  
Mean Temperature 50 °F -  
Max Temperature 62 °F 62 °F - ()
Min Temperature 39 °F 45 °F - ()
Degree Days  
Heating Degree Days 14    
Moisture  
Dew Point 30 °F    
Average Humidity 52    
Maximum Humidity 80    
Minimum Humidity 13    
Precipitation  
Precipitation 0.00 in 0.14 in - ()
Sea Level Pressure  
Sea Level Pressure 30.49 in    
Wind  
Wind Speed 9 mph ()    
Max Wind Speed 15 mph    
Max Gust Speed 22 mph    
T = Trace of Precipitation, MM = Missing Value Source: Averaged Metar Reports

Daily Weather History Graph

Daily Weather History Graph

Search for Another Location

Airport or City:

Trip Planner

Search our weather history database for the weather conditions in past years. The results will help you decide how hot, cold, wet, or windy it might be!

Date:

Astronomy

Apr. 22, 2013 Rise Set
Actual Time 6:01 AM PDT 8:10 PM PDT
Civil Twilight 5:26 AM PDT 8:45 PM PDT
Nautical Twilight 4:43 AM PDT 9:28 PM PDT
Astronomical Twilight 3:55 AM PDT 10:17 PM PDT
Moon 4:50 PM PDT (4/22) 4:16 AM PDT (4/22)
Length of Visible Light 15h 18m
Length of Day
14h 09m
Waxing Gibbous, 88% of the Moon is Illuminated
Apr 22
Waxing Gibbous
Apr 25
Full
May 2
Last Quarter
May 9
New
May 17
First Quarter

Hourly Weather History & Observations

Time (PDT) Temp. Windchill Dew Point Humidity Pressure Visibility Wind Dir Wind Speed Gust Speed Precip Events Conditions
12:00 AM 42.8 °F 35.4 °F 35.6 °F 76% 30.42 in - NNE 15.0 mph - N/A   Unknown
1:00 AM 41.9 °F 34.3 °F 35.2 °F 77% 30.44 in - NE 15.0 mph - N/A   Unknown
2:00 AM 41.4 °F 33.6 °F 34.5 °F 77% 30.47 in - NNE 15.0 mph - N/A   Unknown
3:00 AM 39.9 °F 34.5 °F 33.8 °F 79% 30.49 in - NNE 8.1 mph - N/A   Unknown
4:00 AM 39.7 °F 34.3 °F 33.1 °F 77% 30.51 in - NE 8.1 mph - N/A   Unknown
5:00 AM 40 °F - 32 °F 64% 30.53 in - NE 12.7 mph - -  
5:00 AM 40.5 °F 33.2 °F 32.0 °F 72% 30.53 in - NE 12.7 mph - N/A   Unknown
6:00 AM 40.1 °F 32.7 °F 31.6 °F 72% 30.54 in - NNE 12.7 mph 19.6 mph N/A   Unknown
7:00 AM 39.6 °F 32.5 °F 31.5 °F 73% 30.57 in - NNE 11.5 mph 18.4 mph N/A   Unknown
8:00 AM 42.4 °F 36.1 °F 31.8 °F 66% 30.57 in - NNE 11.5 mph 17.3 mph N/A   Unknown
9:00 AM 44.4 °F 38.2 °F 31.1 °F 60% 30.56 in - NNE 12.7 mph 21.9 mph N/A   Unknown
10:00 AM 47.7 °F - 30.7 °F 52% 30.56 in - NE 13.8 mph 21.9 mph N/A   Unknown
11:00 AM 51.4 °F - 32.0 °F 47% 30.56 in - NE 10.4 mph 17.3 mph N/A   Unknown
12:00 PM 54.7 °F - 31.1 °F 41% 30.55 in - NE 9.2 mph 17.3 mph N/A   Unknown
1:00 PM 57.7 °F - 26.2 °F 30% 30.53 in - NNE 9.2 mph - N/A   Unknown
2:00 PM 59.9 °F - 21.6 °F 23% 30.50 in - NW 6.9 mph - N/A   Unknown
3:00 PM 61.5 °F - 22.5 °F 22% 30.49 in - NW 3.5 mph - N/A   Unknown
4:00 PM 62.2 °F - 21.6 °F 21% 30.48 in - SSW 3.5 mph - N/A   Unknown
5:00 PM 62 °F - 25 °F 13% 30.45 in - South 3.5 mph - -  
5:00 PM 62.4 °F - 24.6 °F 24% 30.45 in - South 3.5 mph - N/A   Unknown
6:00 PM 62.2 °F - 23.2 °F 22% 30.44 in - West 3.5 mph - N/A   Unknown
7:00 PM 60.3 °F - 27.5 °F 29% 30.44 in - WNW 3.5 mph - N/A   Unknown
8:00 PM 54.1 °F - 32.9 °F 45% 30.44 in - SSE 1.2 mph - N/A   Unknown
9:00 PM 49.6 °F - 33.8 °F 54% 30.45 in - NNE 1.2 mph - N/A   Unknown
10:00 PM 43.2 °F - 37.2 °F 80% 30.45 in - Calm Calm - N/A   Unknown
11:00 PM 49 °F - 34 °F 45% 30.45 in - NE 10.4 mph - -  
11:00 PM 49.1 °F - 34.3 °F 57% 30.45 in - NE 10.4 mph - N/A   Unknown